Location: Eastchurch
(51.4000°N, 0.8667°E)
Time: 23:59:37
(UTC+00:00)

USA 215 - Pass Details

Date: 19 January 2026
Orbit: 1098 x 1109 km, 123.0° (Epoch: 10 January)

Event Time Altitude Azimuth Distance (km) Brightness Sun altitude
Exits shadow 18:21:41 23° 105° (ESE) 2,141 4.3 -17.9°
Maximum altitude 18:23:21 26° 128° (SE) 2,028 4.3 -18.1°
Drops below altitude 10° 18:28:36 10° 182° (S) 2,950 5.6 -18.9°
Sets 18:31:34 0° 195° (SSW) 3,902 6.5 -19.4°
